Location: Alessandria
(44.9000°N, 8.6170°E)
Time: 17:30:27
(UTC+02:00)

ISS - Pass Details

Date: 15 May 2021
Orbit: 417 x 422 km, 51.6° (Epoch: 18 June)

Event Time Altitude Azimuth Distance (km) Brightness Sun altitude
Rises 21:59:41 0° 220° (SW) 2,350 0.0 -11.2°
Reaches altitude 10° 22:01:50 10° 212° (SSW) 1,491 -1.1 -11.5°
Maximum altitude 22:04:59 39° 142° (SE) 638 -3.3 -11.9°
Drops below altitude 10° 22:08:10 10° 71° (ENE) 1,503 -1.2 -12.3°
Sets 22:10:21 0° 64° (ENE) 2,371 -0.1 -12.6°
